Time,TemperatureF,DewpointF,PressureIn,WindDirection,WindDirectionDegrees,WindSpeedMPH,WindSpeedGustMPH,Humidity,HourlyPrecipIn,Conditions,Clouds,dailyrainin,SoftwareType,DateUTC
2013-08-26 00:01:00,68.9,61.7,29.91,NNE,30,0.0,0.0,78,0.00,,,0.00,meteobridge,2013-08-26 06:01:00,
2013-08-26 00:06:00,68.7,61.5,29.91,NNE,30,0.0,0.0,78,0.00,,,0.00,meteobridge,2013-08-26 06:06:00,
2013-08-26 00:12:00,68.7,61.2,29.91,NNE,30,0.0,0.0,77,0.00,,,0.00,meteobridge,2013-08-26 06:12:00,
2013-08-26 00:17:00,68.7,61.9,29.91,NNE,30,0.0,0.0,79,0.00,,,0.00,meteobridge,2013-08-26 06:17:00,
2013-08-26 00:22:00,68.5,62.1,29.91,NNE,30,0.0,0.0,80,0.00,,,0.00,meteobridge,2013-08-26 06:22:00,
2013-08-26 00:27:00,68.4,61.5,29.91,NNE,30,0.0,0.0,79,0.00,,,0.00,meteobridge,2013-08-26 06:27:00,
2013-08-26 00:32:00,68.4,62.6,29.91,NNE,30,0.0,0.0,82,0.00,,,0.00,meteobridge,2013-08-26 06:32:00,
2013-08-26 00:38:00,68.5,62.8,29.91,NNE,30,0.0,0.0,82,0.00,,,0.00,meteobridge,2013-08-26 06:38:00,
2013-08-26 00:43:00,68.5,61.7,29.91,NNE,30,0.0,0.0,79,0.00,,,0.00,meteobridge,2013-08-26 06:43:00,
2013-08-26 00:48:00,68.5,62.1,29.91,NNE,30,0.0,0.0,80,0.00,,,0.00,meteobridge,2013-08-26 06:48:00,
2013-08-26 00:53:00,68.2,61.7,29.91,NNE,30,0.0,0.0,80,0.00,,,0.00,meteobridge,2013-08-26 06:53:00,
2013-08-26 00:58:00,68.2,62.4,29.91,NNE,30,0.0,0.0,82,0.00,,,0.00,meteobridge,2013-08-26 06:58:00,
2013-08-26 01:03:00,68.0,62.2,29.91,NNE,30,0.0,0.0,82,0.00,,,0.00,meteobridge,2013-08-26 07:03:00,
2013-08-26 01:09:00,67.8,62.1,29.91,NNE,30,0.0,0.0,82,0.00,,,0.00,meteobridge,2013-08-26 07:09:00,
2013-08-26 01:14:00,67.6,61.9,29.91,NNE,30,0.0,0.0,82,0.00,,,0.00,meteobridge,2013-08-26 07:14:00,
2013-08-26 01:19:00,67.5,62.1,29.91,NNE,30,0.0,0.0,83,0.00,,,0.00,meteobridge,2013-08-26 07:19:00,
2013-08-26 01:24:00,67.5,61.7,29.91,NNE,30,0.0,0.0,82,0.00,,,0.00,meteobridge,2013-08-26 07:24:00,
2013-08-26 01:29:00,67.5,61.3,29.91,NNE,30,0.0,0.0,81,0.00,,,0.00,meteobridge,2013-08-26 07:29:00,
2013-08-26 01:34:00,67.6,61.5,29.91,NNE,30,0.0,0.0,81,0.00,,,0.00,meteobridge,2013-08-26 07:34:00,
2013-08-26 01:40:00,67.5,61.3,29.91,NNE,30,0.0,0.0,81,0.00,,,0.00,meteobridge,2013-08-26 07:40:00,
2013-08-26 01:45:00,67.5,61.2,29.91,NNE,30,0.9,0.9,80,0.00,,,0.00,meteobridge,2013-08-26 07:45:00,
2013-08-26 01:50:00,67.3,61.0,29.91,NNE,30,0.0,0.0,80,0.00,,,0.00,meteobridge,2013-08-26 07:50:00,
2013-08-26 01:55:00,66.9,61.0,29.91,NNE,30,0.0,0.0,81,0.00,,,0.00,meteobridge,2013-08-26 07:55:00,
2013-08-26 02:00:00,66.6,61.0,29.90,NNE,30,0.0,0.0,82,0.00,,,0.00,meteobridge,2013-08-26 08:00:00,
2013-08-26 02:05:00,66.6,61.2,29.90,NNE,30,0.0,0.0,83,0.00,,,0.00,meteobridge,2013-08-26 08:05:00,
2013-08-26 02:11:00,66.0,60.6,29.90,NNE,30,0.0,0.0,83,0.00,,,0.00,meteobridge,2013-08-26 08:11:00,
2013-08-26 02:16:00,65.7,60.6,29.90,NNE,30,0.0,0.0,84,0.00,,,0.00,meteobridge,2013-08-26 08:16:00,
2013-08-26 02:21:00,65.5,60.8,29.91,NNE,30,0.0,0.0,85,0.00,,,0.00,meteobridge,2013-08-26 08:21:00,
2013-08-26 02:26:00,65.5,60.8,29.91,NNE,30,0.0,0.0,85,0.00,,,0.00,meteobridge,2013-08-26 08:26:00,
2013-08-26 02:31:00,65.3,60.6,29.91,NNE,30,0.0,0.0,85,0.00,,,0.00,meteobridge,2013-08-26 08:31:00,
2013-08-26 02:36:00,65.1,60.8,29.91,NNE,30,0.0,0.0,86,0.00,,,0.00,meteobridge,2013-08-26 08:36:00,
2013-08-26 02:41:00,64.9,60.6,29.91,NNE,30,0.0,0.0,86,0.00,,,0.00,meteobridge,2013-08-26 08:41:00,
2013-08-26 02:47:00,65.1,60.1,29.91,NNE,30,0.0,0.0,84,0.00,,,0.00,meteobridge,2013-08-26 08:47:00,
2013-08-26 02:52:00,65.1,60.4,29.91,NNE,30,0.0,0.0,85,0.00,,,0.00,meteobridge,2013-08-26 08:52:00,
2013-08-26 02:57:00,65.1,60.4,29.91,NNE,30,0.0,0.0,85,0.00,,,0.00,meteobridge,2013-08-26 08:57:00,
2013-08-26 03:02:00,64.9,60.3,29.91,NNE,30,0.0,0.0,85,0.00,,,0.00,meteobridge,2013-08-26 09:02:00,
2013-08-26 03:07:00,64.8,60.4,29.91,NNE,30,0.0,0.0,86,0.00,,,0.00,meteobridge,2013-08-26 09:07:00,
2013-08-26 03:13:00,64.6,60.3,29.91,NNE,30,0.0,0.0,86,0.00,,,0.00,meteobridge,2013-08-26 09:13:00,
2013-08-26 03:18:00,64.6,60.3,29.91,NNE,30,0.0,0.0,86,0.00,,,0.00,meteobridge,2013-08-26 09:18:00,
2013-08-26 03:23:00,64.2,60.3,29.92,NNE,30,0.0,0.0,87,0.00,,,0.00,meteobridge,2013-08-26 09:23:00,
2013-08-26 03:28:00,64.2,60.3,29.91,NNE,30,0.0,0.0,87,0.00,,,0.00,meteobridge,2013-08-26 09:28:00,
2013-08-26 03:33:00,64.6,60.3,29.91,NNE,30,0.0,0.9,86,0.00,,,0.00,meteobridge,2013-08-26 09:33:00,
2013-08-26 03:39:00,64.8,60.1,29.91,NNE,30,0.0,0.0,85,0.00,,,0.00,meteobridge,2013-08-26 09:39:00,
2013-08-26 03:44:00,64.8,60.1,29.91,NNE,30,0.0,0.0,85,0.00,,,0.00,meteobridge,2013-08-26 09:44:00,
2013-08-26 03:49:00,64.6,59.9,29.91,NNE,30,0.0,0.0,85,0.00,,,0.00,meteobridge,2013-08-26 09:49:00,
2013-08-26 03:54:00,64.4,59.7,29.92,NNE,30,0.0,0.9,85,0.00,,,0.00,meteobridge,2013-08-26 09:54:00,
2013-08-26 03:59:00,64.9,59.9,29.91,NNE,30,0.0,0.0,84,0.00,,,0.00,meteobridge,2013-08-26 09:59:00,
2013-08-26 04:04:00,65.5,60.3,29.91,NNE,30,0.0,0.9,83,0.00,,,0.00,meteobridge,2013-08-26 10:04:00,
2013-08-26 04:09:00,65.5,59.9,29.92,NNE,30,0.0,0.9,82,0.00,,,0.00,meteobridge,2013-08-26 10:09:00,
2013-08-26 04:14:00,65.5,59.9,29.92,NNE,30,0.0,0.0,82,0.00,,,0.00,meteobridge,2013-08-26 10:14:00,
2013-08-26 04:20:00,64.9,59.7,29.92,NNE,30,0.0,0.9,83,0.00,,,0.00,meteobridge,2013-08-26 10:20:00,
2013-08-26 04:25:00,64.8,59.9,29.92,NNE,30,0.0,0.0,84,0.00,,,0.00,meteobridge,2013-08-26 10:25:00,
2013-08-26 04:30:00,64.9,59.7,29.92,NNE,30,0.0,0.9,83,0.00,,,0.00,meteobridge,2013-08-26 10:30:00,
2013-08-26 04:35:00,64.8,59.5,29.92,NNE,30,0.0,0.0,83,0.00,,,0.00,meteobridge,2013-08-26 10:35:00,
2013-08-26 04:40:00,64.9,59.7,29.92,NNE,30,0.0,0.9,83,0.00,,,0.00,meteobridge,2013-08-26 10:40:00,
2013-08-26 04:45:00,64.9,59.4,29.92,NNE,30,0.9,0.9,82,0.00,,,0.00,meteobridge,2013-08-26 10:45:00,
2013-08-26 04:51:00,64.9,59.4,29.92,NNE,30,0.0,0.0,82,0.00,,,0.00,meteobridge,2013-08-26 10:51:00,
2013-08-26 04:56:00,64.6,59.0,29.93,NNE,30,0.0,0.0,82,0.00,,,0.00,meteobridge,2013-08-26 10:56:00,
2013-08-26 05:01:00,64.2,59.0,29.93,NNE,30,0.0,0.0,83,0.00,,,0.00,meteobridge,2013-08-26 11:01:00,
2013-08-26 05:07:00,64.0,59.2,29.93,NNE,30,0.0,0.0,84,0.00,,,0.00,meteobridge,2013-08-26 11:07:00,
2013-08-26 05:12:00,63.7,59.0,29.93,NNE,30,0.0,0.0,85,0.00,,,0.00,meteobridge,2013-08-26 11:12:00,
2013-08-26 05:17:00,63.5,59.2,29.93,NNE,30,0.0,0.0,86,0.00,,,0.00,meteobridge,2013-08-26 11:17:00,
2013-08-26 05:22:00,63.3,59.0,29.93,NNE,30,0.0,0.0,86,0.00,,,0.00,meteobridge,2013-08-26 11:22:00,
2013-08-26 05:27:00,63.1,58.8,29.93,NNE,30,0.0,0.0,86,0.00,,,0.00,meteobridge,2013-08-26 11:27:00,
2013-08-26 05:32:00,63.0,59.0,29.93,NNE,30,0.0,0.0,87,0.00,,,0.00,meteobridge,2013-08-26 11:32:00,
2013-08-26 05:37:00,62.8,59.2,29.93,NNE,30,0.0,0.0,88,0.00,,,0.00,meteobridge,2013-08-26 11:37:00,
2013-08-26 05:42:00,62.4,58.8,29.93,NNE,30,0.0,0.0,88,0.00,,,0.00,meteobridge,2013-08-26 11:42:00,
2013-08-26 05:48:00,62.2,59.0,29.93,NNE,30,0.0,0.0,89,0.00,,,0.00,meteobridge,2013-08-26 11:48:00,
2013-08-26 05:53:00,62.2,59.0,29.93,NNE,30,0.0,0.0,89,0.00,,,0.00,meteobridge,2013-08-26 11:53:00,
2013-08-26 05:58:00,62.1,58.8,29.93,NNE,30,0.0,0.0,89,0.00,,,0.00,meteobridge,2013-08-26 11:58:00,
2013-08-26 06:04:00,62.1,58.8,29.93,NNE,30,0.0,0.0,89,0.00,,,0.00,meteobridge,2013-08-26 12:04:00,
2013-08-26 06:09:00,62.2,59.2,29.93,NNE,30,0.0,0.0,90,0.00,,,0.00,meteobridge,2013-08-26 12:09:00,
2013-08-26 06:14:00,62.1,58.8,29.94,NNE,30,0.0,0.0,89,0.00,,,0.00,meteobridge,2013-08-26 12:14:00,
2013-08-26 06:19:00,61.9,59.0,29.94,NNE,30,0.0,0.0,90,0.00,,,0.00,meteobridge,2013-08-26 12:19:00,
2013-08-26 06:24:00,61.7,58.8,29.94,NNE,30,0.0,0.0,90,0.00,,,0.00,meteobridge,2013-08-26 12:24:00,
2013-08-26 06:29:00,61.9,59.2,29.94,NNE,30,0.0,0.0,91,0.00,,,0.00,meteobridge,2013-08-26 12:29:00,
2013-08-26 06:34:00,62.1,59.2,29.94,NNE,30,0.0,0.0,90,0.00,,,0.00,meteobridge,2013-08-26 12:34:00,
2013-08-26 06:40:00,61.9,59.0,29.94,NNE,30,0.0,0.0,90,0.00,,,0.00,meteobridge,2013-08-26 12:40:00,
2013-08-26 06:45:00,61.9,59.0,29.94,NNE,30,0.0,0.0,90,0.00,,,0.00,meteobridge,2013-08-26 12:45:00,
2013-08-26 06:50:00,62.1,59.4,29.95,NNE,30,0.0,0.0,91,0.00,,,0.00,meteobridge,2013-08-26 12:50:00,
2013-08-26 06:55:00,62.2,59.2,29.95,NNE,30,0.0,0.0,90,0.00,,,0.00,meteobridge,2013-08-26 12:55:00,
2013-08-26 07:00:00,62.2,59.2,29.95,NNE,30,0.0,0.0,90,0.00,,,0.00,meteobridge,2013-08-26 13:00:00,
2013-08-26 07:06:00,62.4,59.4,29.95,NNE,30,0.0,0.0,90,0.00,,,0.00,meteobridge,2013-08-26 13:06:00,
2013-08-26 07:11:00,63.0,59.7,29.95,NNE,30,0.0,0.0,89,0.00,,,0.00,meteobridge,2013-08-26 13:11:00,
2013-08-26 07:16:00,63.3,59.7,29.95,NNE,30,0.0,0.0,88,0.00,,,0.00,meteobridge,2013-08-26 13:16:00,
2013-08-26 07:21:00,64.0,60.1,29.95,NNE,30,0.0,0.0,87,0.00,,,0.00,meteobridge,2013-08-26 13:21:00,
2013-08-26 07:26:00,64.8,60.1,29.95,NNE,30,0.0,0.0,85,0.00,,,0.00,meteobridge,2013-08-26 13:26:00,
2013-08-26 07:31:00,65.7,60.6,29.95,NNE,30,0.0,0.0,84,0.00,,,0.00,meteobridge,2013-08-26 13:31:00,
2013-08-26 07:36:00,66.0,60.4,29.95,NNE,30,0.9,0.9,82,0.00,,,0.00,meteobridge,2013-08-26 13:36:00,
2013-08-26 07:42:00,66.6,60.6,29.95,NNE,30,0.0,0.0,81,0.00,,,0.00,meteobridge,2013-08-26 13:42:00,
2013-08-26 07:47:00,66.9,59.9,29.95,NNE,30,0.0,0.0,78,0.00,,,0.00,meteobridge,2013-08-26 13:47:00,
2013-08-26 07:52:00,67.5,59.5,29.96,NNE,28,2.0,2.0,76,0.00,,,0.00,meteobridge,2013-08-26 13:52:00,
2013-08-26 07:57:00,68.0,59.7,29.96,North,9,0.0,0.0,75,0.00,,,0.00,meteobridge,2013-08-26 13:57:00,
2013-08-26 08:02:00,68.4,59.4,29.96,North,9,0.9,0.9,73,0.00,,,0.00,meteobridge,2013-08-26 14:02:00,
2013-08-26 08:07:00,68.9,59.5,29.96,North,9,0.9,0.9,72,0.00,,,0.00,meteobridge,2013-08-26 14:07:00,
2013-08-26 08:12:00,69.1,58.8,29.96,North,9,0.9,0.9,70,0.00,,,0.00,meteobridge,2013-08-26 14:12:00,
2013-08-26 08:18:00,69.8,59.2,29.96,North,9,0.0,0.9,69,0.00,,,0.00,meteobridge,2013-08-26 14:18:00,
2013-08-26 08:23:00,70.3,59.4,29.96,North,9,0.0,0.9,68,0.00,,,0.00,meteobridge,2013-08-26 14:23:00,
2013-08-26 08:28:00,70.9,60.3,29.96,North,9,0.0,2.9,69,0.00,,,0.00,meteobridge,2013-08-26 14:28:00,
2013-08-26 08:33:00,71.1,59.9,29.96,North,9,0.0,0.9,68,0.00,,,0.00,meteobridge,2013-08-26 14:33:00,
2013-08-26 08:38:00,71.1,59.9,29.96,West,281,0.9,2.9,68,0.00,,,0.00,meteobridge,2013-08-26 14:38:00,
2013-08-26 08:43:00,71.2,60.1,29.96,WNW,289,0.0,0.9,68,0.00,,,0.00,meteobridge,2013-08-26 14:43:00,
2013-08-26 08:48:00,71.2,59.7,29.96,NW,306,0.0,0.9,67,0.00,,,0.00,meteobridge,2013-08-26 14:48:00,
2013-08-26 08:53:00,72.0,60.4,29.96,NW,306,0.0,0.9,67,0.00,,,0.00,meteobridge,2013-08-26 14:53:00,
2013-08-26 08:58:00,72.9,61.3,29.96,NNW,338,0.0,2.0,67,0.00,,,0.00,meteobridge,2013-08-26 14:58:00,
2013-08-26 09:03:00,73.0,60.6,29.96,West,277,0.9,0.9,65,0.00,,,0.00,meteobridge,2013-08-26 15:03:00,
2013-08-26 09:09:00,73.2,59.9,29.96,West,263,0.0,2.0,63,0.00,,,0.00,meteobridge,2013-08-26 15:09:00,
2013-08-26 09:14:00,73.8,59.5,29.96,WNW,302,0.9,2.0,61,0.00,,,0.00,meteobridge,2013-08-26 15:14:00,
2013-08-26 09:19:00,73.6,59.4,29.96,NW,312,0.9,2.9,61,0.00,,,0.00,meteobridge,2013-08-26 15:19:00,
2013-08-26 09:24:00,73.2,59.0,29.96,West,277,0.9,0.9,61,0.00,,,0.00,meteobridge,2013-08-26 15:24:00,
2013-08-26 09:29:00,72.9,59.5,29.97,WNW,293,0.9,2.0,63,0.00,,,0.00,meteobridge,2013-08-26 15:29:00,
2013-08-26 09:34:00,73.0,60.1,29.97,NNW,346,0.0,2.9,64,0.00,,,0.00,meteobridge,2013-08-26 15:34:00,
2013-08-26 09:39:00,73.8,59.5,29.97,NW,314,0.0,0.9,61,0.00,,,0.00,meteobridge,2013-08-26 15:39:00,
2013-08-26 09:44:00,74.5,59.7,29.97,WNW,301,0.9,0.9,60,0.00,,,0.00,meteobridge,2013-08-26 15:44:00,
2013-08-26 09:49:00,74.8,59.0,29.97,NNW,348,2.0,4.0,58,0.00,,,0.00,meteobridge,2013-08-26 15:49:00,
2013-08-26 09:54:00,75.6,60.3,29.97,North,350,0.9,2.0,59,0.00,,,0.00,meteobridge,2013-08-26 15:54:00,
2013-08-26 09:59:00,75.9,60.6,29.97,NW,315,0.9,0.9,59,0.00,,,0.00,meteobridge,2013-08-26 15:59:00,
2013-08-26 10:05:00,76.5,59.5,29.97,NW,323,0.0,0.9,56,0.00,,,0.00,meteobridge,2013-08-26 16:05:00,
2013-08-26 10:10:00,77.2,58.6,29.97,NW,313,2.0,2.0,53,0.00,,,0.00,meteobridge,2013-08-26 16:10:00,
2013-08-26 10:15:00,77.4,59.9,29.97,NNW,344,2.9,4.0,55,0.00,,,0.00,meteobridge,2013-08-26 16:15:00,
2013-08-26 10:20:00,77.7,59.2,29.97,NNW,346,0.0,0.9,53,0.00,,,0.00,meteobridge,2013-08-26 16:20:00,
2013-08-26 10:25:00,79.0,58.1,29.97,NNW,346,2.0,2.9,49,0.00,,,0.00,meteobridge,2013-08-26 16:25:00,
2013-08-26 10:30:00,79.3,60.3,29.96,NNW,346,0.9,0.9,52,0.00,,,0.00,meteobridge,2013-08-26 16:30:00,
2013-08-26 10:35:00,79.9,59.5,29.97,South,174,0.0,2.9,50,0.00,,,0.00,meteobridge,2013-08-26 16:35:00,
2013-08-26 10:40:00,79.2,57.7,29.96,ENE,72,0.0,2.0,48,0.00,,,0.00,meteobridge,2013-08-26 16:40:00,
2013-08-26 10:45:00,80.1,59.2,29.96,WSW,248,2.0,2.9,49,0.00,,,0.00,meteobridge,2013-08-26 16:45:00,
2013-08-26 10:50:00,80.2,58.1,29.96,SW,217,4.9,6.0,47,0.00,,,0.00,meteobridge,2013-08-26 16:50:00,
2013-08-26 10:55:00,79.5,56.8,29.96,SW,227,4.0,6.9,46,0.00,,,0.00,meteobridge,2013-08-26 16:55:00,
2013-08-26 11:00:00,79.3,57.9,29.96,SE,144,4.0,4.0,48,0.00,,,0.00,meteobridge,2013-08-26 17:00:00,
2013-08-26 11:05:00,80.4,57.7,29.96,SW,219,4.0,8.1,46,0.00,,,0.00,meteobridge,2013-08-26 17:05:00,
2013-08-26 11:10:00,81.3,56.7,29.96,WSW,245,4.0,6.9,43,0.00,,,0.00,meteobridge,2013-08-26 17:10:00,
2013-08-26 11:16:00,81.3,56.7,29.96,SE,136,2.9,8.1,43,0.00,,,0.00,meteobridge,2013-08-26 17:16:00,
2013-08-26 11:21:00,81.7,56.3,29.96,WSW,242,2.0,6.0,42,0.00,,,0.00,meteobridge,2013-08-26 17:21:00,
2013-08-26 11:26:00,81.1,57.2,29.96,South,187,2.0,8.1,44,0.00,,,0.00,meteobridge,2013-08-26 17:26:00,
2013-08-26 11:31:00,81.7,56.3,29.95,SW,221,2.9,4.9,42,0.00,,,0.00,meteobridge,2013-08-26 17:31:00,
2013-08-26 11:36:00,81.9,56.5,29.95,SW,217,4.9,4.9,42,0.00,,,0.00,meteobridge,2013-08-26 17:36:00,
2013-08-26 11:41:00,81.3,56.1,29.95,WSW,244,2.0,4.9,42,0.00,,,0.00,meteobridge,2013-08-26 17:41:00,
2013-08-26 11:46:00,81.9,56.5,29.95,South,171,4.0,4.9,42,0.00,,,0.00,meteobridge,2013-08-26 17:46:00,
2013-08-26 11:51:00,82.2,56.8,29.95,South,170,6.0,8.9,42,0.00,,,0.00,meteobridge,2013-08-26 17:51:00,
2013-08-26 11:56:00,82.6,55.8,29.95,South,191,0.9,6.0,40,0.00,,,0.00,meteobridge,2013-08-26 17:56:00,
2013-08-26 12:01:00,82.4,56.3,29.94,South,169,2.9,4.9,41,0.00,,,0.00,meteobridge,2013-08-26 18:01:00,
2013-08-26 12:06:00,81.7,55.8,29.94,NE,40,2.0,4.0,41,0.00,,,0.00,meteobridge,2013-08-26 18:06:00,
2013-08-26 12:11:00,81.5,55.6,29.94,West,261,0.0,2.9,41,0.00,,,0.00,meteobridge,2013-08-26 18:11:00,
2013-08-26 12:16:00,81.1,55.9,29.94,SW,222,0.9,4.0,42,0.00,,,0.00,meteobridge,2013-08-26 18:16:00,
2013-08-26 12:21:00,81.7,55.0,29.94,SSE,156,4.0,8.9,40,0.00,,,0.00,meteobridge,2013-08-26 18:21:00,
2013-08-26 12:26:00,82.8,55.2,29.93,SSW,202,4.0,4.9,39,0.00,,,0.00,meteobridge,2013-08-26 18:26:00,
2013-08-26 12:31:00,83.5,56.7,29.93,SW,221,0.9,4.9,40,0.00,,,0.00,meteobridge,2013-08-26 18:31:00,
2013-08-26 12:36:00,83.7,55.4,29.93,SSE,155,2.9,6.9,38,0.00,,,0.00,meteobridge,2013-08-26 18:36:00,
2013-08-26 12:41:00,82.8,54.5,29.93,ESE,103,0.9,6.9,38,0.00,,,0.00,meteobridge,2013-08-26 18:41:00,
2013-08-26 12:47:00,82.2,55.6,29.93,SSE,162,2.0,4.0,40,0.00,,,0.00,meteobridge,2013-08-26 18:47:00,
2013-08-26 12:52:00,82.2,56.1,29.93,SSW,194,2.0,4.0,41,0.00,,,0.00,meteobridge,2013-08-26 18:52:00,
2013-08-26 12:57:00,83.1,55.6,29.93,NNW,337,2.9,2.9,39,0.00,,,0.00,meteobridge,2013-08-26 18:57:00,
2013-08-26 13:02:00,82.9,55.4,29.93,NNW,344,2.0,4.0,39,0.00,,,0.00,meteobridge,2013-08-26 19:02:00,
2013-08-26 13:07:00,83.7,55.4,29.92,WSW,252,0.9,2.9,38,0.00,,,0.00,meteobridge,2013-08-26 19:07:00,
2013-08-26 13:12:00,84.9,54.1,29.92,SSW,196,2.0,4.0,35,0.00,,,0.00,meteobridge,2013-08-26 19:12:00,
2013-08-26 13:17:00,85.5,54.7,29.92,South,170,4.9,6.9,35,0.00,,,0.00,meteobridge,2013-08-26 19:17:00,
2013-08-26 13:22:00,86.2,55.4,29.92,SSW,205,2.9,8.1,35,0.00,,,0.00,meteobridge,2013-08-26 19:22:00,
2013-08-26 13:27:00,85.3,54.5,29.92,SSE,155,4.0,6.0,35,0.00,,,0.00,meteobridge,2013-08-26 19:27:00,
2013-08-26 13:32:00,84.4,53.8,29.91,East,93,2.0,4.9,35,0.00,,,0.00,meteobridge,2013-08-26 19:32:00,
2013-08-26 13:37:00,83.1,54.1,29.91,South,184,0.0,2.0,37,0.00,,,0.00,meteobridge,2013-08-26 19:37:00,
2013-08-26 13:42:00,84.7,54.1,29.91,SSE,165,2.9,4.0,35,0.00,,,0.00,meteobridge,2013-08-26 19:42:00,
2013-08-26 13:47:00,84.4,54.5,29.91,South,181,2.0,2.9,36,0.00,,,0.00,meteobridge,2013-08-26 19:47:00,
2013-08-26 13:52:00,83.8,54.9,29.91,South,175,2.9,6.0,37,0.00,,,0.00,meteobridge,2013-08-26 19:52:00,
2013-08-26 13:57:00,83.7,55.4,29.91,South,176,2.9,2.9,38,0.00,,,0.00,meteobridge,2013-08-26 19:57:00,
2013-08-26 14:02:00,85.5,55.4,29.91,WSW,240,4.0,6.0,36,0.00,,,0.00,meteobridge,2013-08-26 20:02:00,
2013-08-26 14:07:00,86.4,55.4,29.90,South,169,4.0,6.9,35,0.00,,,0.00,meteobridge,2013-08-26 20:07:00,
2013-08-26 14:12:00,86.2,54.5,29.90,ESE,120,2.0,2.9,34,0.00,,,0.00,meteobridge,2013-08-26 20:12:00,
2013-08-26 14:17:00,87.6,55.0,29.90,South,186,2.9,6.0,33,0.00,,,0.00,meteobridge,2013-08-26 20:17:00,
2013-08-26 14:22:00,87.1,53.6,29.90,SSE,147,2.9,6.0,32,0.00,,,0.00,meteobridge,2013-08-26 20:22:00,
2013-08-26 14:27:00,86.0,53.6,29.89,SE,131,2.0,2.9,33,0.00,,,0.00,meteobridge,2013-08-26 20:27:00,
2013-08-26 14:32:00,85.3,54.5,29.89,SSW,195,0.9,4.0,35,0.00,,,0.00,meteobridge,2013-08-26 20:32:00,
2013-08-26 14:37:00,84.6,54.7,29.89,SE,132,0.9,2.0,36,0.00,,,0.00,meteobridge,2013-08-26 20:37:00,
2013-08-26 14:42:00,84.7,54.1,29.89,ENE,74,0.9,4.9,35,0.00,,,0.00,meteobridge,2013-08-26 20:42:00,
2013-08-26 14:47:00,84.9,54.1,29.88,South,181,2.0,4.0,35,0.00,,,0.00,meteobridge,2013-08-26 20:47:00,
2013-08-26 14:52:00,85.5,54.0,29.88,East,96,2.0,6.0,34,0.00,,,0.00,meteobridge,2013-08-26 20:52:00,
2013-08-26 14:57:00,86.2,53.8,29.88,SW,235,0.0,4.0,33,0.00,,,0.00,meteobridge,2013-08-26 20:57:00,
2013-08-26 15:02:00,87.3,55.4,29.88,SW,216,2.0,2.9,34,0.00,,,0.00,meteobridge,2013-08-26 21:02:00,
2013-08-26 15:07:00,88.3,53.8,29.88,SSW,200,2.9,6.9,31,0.00,,,0.00,meteobridge,2013-08-26 21:07:00,
2013-08-26 15:12:00,87.4,54.0,29.87,SW,219,2.0,6.9,32,0.00,,,0.00,meteobridge,2013-08-26 21:12:00,
2013-08-26 15:17:00,88.7,55.0,29.87,ESE,103,0.9,6.0,32,0.00,,,0.00,meteobridge,2013-08-26 21:17:00,
2013-08-26 15:22:00,88.2,53.8,29.87,SSE,159,4.0,6.0,31,0.00,,,0.00,meteobridge,2013-08-26 21:22:00,
2013-08-26 15:27:00,87.1,53.6,29.86,SE,136,4.0,4.9,32,0.00,,,0.00,meteobridge,2013-08-26 21:27:00,
2013-08-26 15:33:00,87.1,53.6,29.86,SSE,168,4.0,4.0,32,0.00,,,0.00,meteobridge,2013-08-26 21:33:00,
2013-08-26 15:38:00,87.6,53.2,29.85,SSW,196,2.9,8.1,31,0.00,,,0.00,meteobridge,2013-08-26 21:38:00,
2013-08-26 15:43:00,86.7,53.4,29.85,SW,215,2.0,4.0,32,0.00,,,0.00,meteobridge,2013-08-26 21:43:00,
2013-08-26 15:48:00,86.7,53.4,29.85,SSW,193,2.9,6.0,32,0.00,,,0.00,meteobridge,2013-08-26 21:48:00,
2013-08-26 15:53:00,86.4,53.1,29.84,SSW,199,2.0,6.9,32,0.00,,,0.00,meteobridge,2013-08-26 21:53:00,
2013-08-26 15:58:00,87.6,54.1,29.84,WSW,254,2.0,4.9,32,0.00,,,0.00,meteobridge,2013-08-26 21:58:00,
2013-08-26 16:03:00,87.6,52.3,29.84,SW,221,0.9,6.9,30,0.00,,,0.00,meteobridge,2013-08-26 22:03:00,
2013-08-26 16:08:00,88.0,52.7,29.83,SW,236,2.0,8.9,30,0.00,,,0.00,meteobridge,2013-08-26 22:08:00,
2013-08-26 16:13:00,87.6,53.2,29.83,SSE,155,2.0,6.0,31,0.00,,,0.00,meteobridge,2013-08-26 22:13:00,
2013-08-26 16:18:00,88.0,52.7,29.83,SW,236,4.9,6.0,30,0.00,,,0.00,meteobridge,2013-08-26 22:18:00,
2013-08-26 16:23:00,88.2,53.8,29.83,SSE,150,2.9,4.9,31,0.00,,,0.00,meteobridge,2013-08-26 22:23:00,
2013-08-26 16:28:00,87.4,53.1,29.83,SE,144,0.9,4.9,31,0.00,,,0.00,meteobridge,2013-08-26 22:28:00,
2013-08-26 16:33:00,86.7,53.4,29.83,South,169,4.0,8.1,32,0.00,,,0.00,meteobridge,2013-08-26 22:33:00,
2013-08-26 16:38:00,85.8,52.5,29.83,SSW,199,2.9,4.0,32,0.00,,,0.00,meteobridge,2013-08-26 22:38:00,
2013-08-26 16:43:00,86.4,53.8,29.83,SSE,148,2.9,8.9,33,0.00,,,0.00,meteobridge,2013-08-26 22:43:00,
2013-08-26 16:48:00,87.3,53.8,29.83,SSE,163,2.9,8.9,32,0.00,,,0.00,meteobridge,2013-08-26 22:48:00,
2013-08-26 16:53:00,86.5,54.0,29.82,West,269,2.9,4.9,33,0.00,,,0.00,meteobridge,2013-08-26 22:53:00,
2013-08-26 16:58:00,86.0,53.6,29.82,SE,132,4.0,4.0,33,0.00,,,0.00,meteobridge,2013-08-26 22:58:00,
2013-08-26 17:03:00,86.2,52.9,29.82,SE,132,6.0,6.0,32,0.00,,,0.00,meteobridge,2013-08-26 23:03:00,
2013-08-26 17:08:00,86.7,52.5,29.81,SSE,159,2.9,4.0,31,0.00,,,0.00,meteobridge,2013-08-26 23:08:00,
2013-08-26 17:13:00,87.1,53.6,29.81,SE,146,4.0,6.0,32,0.00,,,0.00,meteobridge,2013-08-26 23:13:00,
2013-08-26 17:18:00,87.3,52.9,29.81,SSE,166,4.0,8.9,31,0.00,,,0.00,meteobridge,2013-08-26 23:18:00,
2013-08-26 17:23:00,87.3,52.9,29.81,South,178,2.0,8.1,31,0.00,,,0.00,meteobridge,2013-08-26 23:23:00,
2013-08-26 17:28:00,87.3,52.9,29.80,SE,142,4.0,8.9,31,0.00,,,0.00,meteobridge,2013-08-26 23:28:00,
2013-08-26 17:33:00,87.6,54.1,29.80,South,173,4.9,4.9,32,0.00,,,0.00,meteobridge,2013-08-26 23:33:00,
2013-08-26 17:38:00,87.3,53.8,29.80,SSE,153,2.0,6.0,32,0.00,,,0.00,meteobridge,2013-08-26 23:38:00,
2013-08-26 17:43:00,87.3,52.9,29.80,SW,227,4.0,6.0,31,0.00,,,0.00,meteobridge,2013-08-26 23:43:00,
2013-08-26 17:48:00,87.3,53.8,29.80,South,174,2.0,2.9,32,0.00,,,0.00,meteobridge,2013-08-26 23:48:00,
2013-08-26 17:54:00,87.6,53.2,29.80,South,178,2.0,6.0,31,0.00,,,0.00,meteobridge,2013-08-26 23:54:00,
2013-08-26 17:59:00,88.0,53.6,29.80,SE,127,6.0,8.9,31,0.00,,,0.00,meteobridge,2013-08-26 23:59:00,
2013-08-26 18:04:00,87.4,54.0,29.80,WSW,242,4.0,10.1,32,0.00,,,0.00,meteobridge,2013-08-27 00:04:00,
2013-08-26 18:09:00,87.1,54.5,29.80,South,174,2.9,10.1,33,0.00,,,0.00,meteobridge,2013-08-27 00:09:00,
2013-08-26 18:14:00,86.9,54.3,29.80,SSE,164,2.9,8.1,33,0.00,,,0.00,meteobridge,2013-08-27 00:14:00,
2013-08-26 18:19:00,86.4,53.8,29.80,SSE,158,2.0,11.0,33,0.00,,,0.00,meteobridge,2013-08-27 00:19:00,
2013-08-26 18:24:00,85.8,53.4,29.80,West,272,2.9,8.1,33,0.00,,,0.00,meteobridge,2013-08-27 00:24:00,
2013-08-26 18:29:00,85.6,52.3,29.80,SSW,211,6.9,12.1,32,0.00,,,0.00,meteobridge,2013-08-27 00:29:00,
2013-08-26 18:34:00,85.3,52.9,29.80,South,189,4.9,8.9,33,0.00,,,0.00,meteobridge,2013-08-27 00:34:00,
2013-08-26 18:39:00,84.9,53.4,29.80,SSW,209,0.9,6.0,34,0.00,,,0.00,meteobridge,2013-08-27 00:39:00,
2013-08-26 18:44:00,84.7,52.5,29.80,SSW,197,2.0,11.0,33,0.00,,,0.00,meteobridge,2013-08-27 00:44:00,
2013-08-26 18:49:00,84.4,52.2,29.80,South,173,6.9,13.0,33,0.00,,,0.00,meteobridge,2013-08-27 00:49:00,
2013-08-26 18:54:00,84.2,52.0,29.80,South,171,4.9,10.1,33,0.00,,,0.00,meteobridge,2013-08-27 00:54:00,
2013-08-26 18:59:00,83.8,51.6,29.80,South,175,2.0,6.0,33,0.00,,,0.00,meteobridge,2013-08-27 00:59:00,
2013-08-26 19:04:00,83.8,52.5,29.80,SSW,200,2.9,8.1,34,0.00,,,0.00,meteobridge,2013-08-27 01:04:00,
2013-08-26 19:09:00,83.5,51.4,29.80,SW,221,2.0,8.1,33,0.00,,,0.00,meteobridge,2013-08-27 01:09:00,
2013-08-26 19:14:00,83.5,52.2,29.80,South,179,4.9,6.0,34,0.00,,,0.00,meteobridge,2013-08-27 01:14:00,
2013-08-26 19:19:00,83.1,51.8,29.80,WSW,237,6.0,8.9,34,0.00,,,0.00,meteobridge,2013-08-27 01:19:00,
2013-08-26 19:24:00,82.9,53.2,29.80,WSW,244,4.9,6.0,36,0.00,,,0.00,meteobridge,2013-08-27 01:24:00,
2013-08-26 19:29:00,82.6,53.6,29.81,South,173,2.0,4.9,37,0.00,,,0.00,meteobridge,2013-08-27 01:29:00,
2013-08-26 19:34:00,82.2,53.4,29.81,South,172,2.0,2.0,37,0.00,,,0.00,meteobridge,2013-08-27 01:34:00,
2013-08-26 19:39:00,81.9,53.1,29.81,SW,218,4.9,8.1,37,0.00,,,0.00,meteobridge,2013-08-27 01:39:00,
2013-08-26 19:45:00,81.5,53.4,29.81,WSW,252,4.0,8.9,38,0.00,,,0.00,meteobridge,2013-08-27 01:45:00,
2013-08-26 19:50:00,81.1,52.3,29.81,SSW,210,2.0,10.1,37,0.00,,,0.00,meteobridge,2013-08-27 01:50:00,
2013-08-26 19:54:00,81.0,52.2,29.81,SSW,210,2.9,6.0,37,0.00,,,0.00,meteobridge,2013-08-27 01:54:00,
2013-08-26 20:00:00,80.6,52.0,29.81,South,181,6.9,6.9,37,0.00,,,0.00,meteobridge,2013-08-27 02:00:00,
2013-08-26 20:05:00,80.4,52.5,29.81,South,183,2.9,2.9,38,0.00,,,0.00,meteobridge,2013-08-27 02:05:00,
2013-08-26 20:10:00,80.1,52.9,29.81,SE,144,2.0,2.9,39,0.00,,,0.00,meteobridge,2013-08-27 02:10:00,
2013-08-26 20:15:00,79.9,52.7,29.81,SE,144,6.9,6.9,39,0.00,,,0.00,meteobridge,2013-08-27 02:15:00,
2013-08-26 20:20:00,79.3,52.9,29.82,SE,134,4.0,6.0,40,0.00,,,0.00,meteobridge,2013-08-27 02:20:00,
2013-08-26 20:25:00,79.2,53.4,29.81,SSE,153,4.9,8.1,41,0.00,,,0.00,meteobridge,2013-08-27 02:25:00,
2013-08-26 20:30:00,78.8,53.1,29.81,SSE,153,0.9,4.0,41,0.00,,,0.00,meteobridge,2013-08-27 02:30:00,
2013-08-26 20:35:00,78.4,53.4,29.82,SE,142,0.0,6.0,42,0.00,,,0.00,meteobridge,2013-08-27 02:35:00,
2013-08-26 20:40:00,78.3,53.2,29.82,SSE,155,2.0,4.0,42,0.00,,,0.00,meteobridge,2013-08-27 02:40:00,
2013-08-26 20:45:00,78.1,53.8,29.82,SSE,153,2.0,4.9,43,0.00,,,0.00,meteobridge,2013-08-27 02:45:00,
2013-08-26 20:50:00,77.9,54.3,29.82,SSE,147,0.0,4.9,44,0.00,,,0.00,meteobridge,2013-08-27 02:50:00,
2013-08-26 20:55:00,77.7,54.1,29.82,ESE,109,2.0,4.9,44,0.00,,,0.00,meteobridge,2013-08-27 02:55:00,
2013-08-26 21:00:00,77.7,54.1,29.82,SE,144,0.0,2.9,44,0.00,,,0.00,meteobridge,2013-08-27 03:00:00,
2013-08-26 21:06:00,77.5,54.0,29.82,ESE,123,0.0,2.0,44,0.00,,,0.00,meteobridge,2013-08-27 03:06:00,
2013-08-26 21:11:00,77.4,54.3,29.82,ESE,123,0.0,0.9,45,0.00,,,0.00,meteobridge,2013-08-27 03:11:00,
2013-08-26 21:16:00,77.2,54.1,29.82,South,170,0.0,2.0,45,0.00,,,0.00,meteobridge,2013-08-27 03:16:00,
2013-08-26 21:21:00,76.8,53.8,29.83,SE,132,0.9,0.9,45,0.00,,,0.00,meteobridge,2013-08-27 03:21:00,
2013-08-26 21:26:00,77.0,53.4,29.83,ESE,123,0.0,0.9,44,0.00,,,0.00,meteobridge,2013-08-27 03:26:00,
2013-08-26 21:31:00,77.2,52.9,29.83,East,98,0.0,0.9,43,0.00,,,0.00,meteobridge,2013-08-27 03:31:00,
2013-08-26 21:36:00,77.2,52.3,29.83,ESE,114,0.0,2.0,42,0.00,,,0.00,meteobridge,2013-08-27 03:36:00,
2013-08-26 21:41:00,77.2,51.1,29.83,ESE,121,0.9,2.9,40,0.00,,,0.00,meteobridge,2013-08-27 03:41:00,
2013-08-26 21:46:00,77.4,51.1,29.83,ESE,109,0.9,2.9,40,0.00,,,0.00,meteobridge,2013-08-27 03:46:00,
2013-08-26 21:51:00,77.4,49.8,29.84,East,93,6.0,6.0,38,0.00,,,0.00,meteobridge,2013-08-27 03:51:00,
2013-08-26 21:56:00,77.4,49.8,29.84,SE,130,0.9,2.9,38,0.00,,,0.00,meteobridge,2013-08-27 03:56:00,
2013-08-26 22:01:00,77.2,48.9,29.84,SE,139,0.9,6.0,37,0.00,,,0.00,meteobridge,2013-08-27 04:01:00,
2013-08-26 22:02:00,77.2,48.9,29.84,East,99,0.9,6.0,37,0.00,,,0.00,meteobridge,2013-08-27 04:02:00,
2013-08-26 22:07:00,77.2,48.9,29.84,SE,130,0.0,2.9,37,0.00,,,0.00,meteobridge,2013-08-27 04:07:00,
2013-08-26 22:12:00,77.2,48.9,29.84,ESE,122,2.0,4.9,37,0.00,,,0.00,meteobridge,2013-08-27 04:12:00,
2013-08-26 22:17:00,77.0,48.7,29.85,SSE,153,2.0,6.0,37,0.00,,,0.00,meteobridge,2013-08-27 04:17:00,
2013-08-26 22:22:00,76.8,48.6,29.85,SE,133,2.9,4.0,37,0.00,,,0.00,meteobridge,2013-08-27 04:22:00,
2013-08-26 22:27:00,76.8,48.6,29.85,SE,145,0.0,4.0,37,0.00,,,0.00,meteobridge,2013-08-27 04:27:00,
2013-08-26 22:32:00,76.6,48.4,29.85,SE,134,2.0,4.0,37,0.00,,,0.00,meteobridge,2013-08-27 04:32:00,
2013-08-26 22:37:00,76.6,48.4,29.85,ESE,120,0.9,4.0,37,0.00,,,0.00,meteobridge,2013-08-27 04:37:00,
2013-08-26 22:42:00,76.6,48.4,29.85,SE,126,0.0,6.0,37,0.00,,,0.00,meteobridge,2013-08-27 04:42:00,
2013-08-26 22:47:00,76.5,48.2,29.85,SE,133,2.9,2.9,37,0.00,,,0.00,meteobridge,2013-08-27 04:47:00,
2013-08-26 22:52:00,76.5,48.2,29.85,SE,143,0.0,4.9,37,0.00,,,0.00,meteobridge,2013-08-27 04:52:00,
2013-08-26 22:57:00,76.3,48.0,29.85,SE,133,2.9,2.9,37,0.00,,,0.00,meteobridge,2013-08-27 04:57:00,
2013-08-26 23:02:00,76.1,48.0,29.85,East,84,0.0,2.9,37,0.00,,,0.00,meteobridge,2013-08-27 05:02:00,
2013-08-26 23:07:00,75.7,47.7,29.85,South,191,0.9,4.9,37,0.00,,,0.00,meteobridge,2013-08-27 05:07:00,
2013-08-26 23:13:00,75.6,47.5,29.85,ESE,122,0.9,4.0,37,0.00,,,0.00,meteobridge,2013-08-27 05:13:00,
2013-08-26 23:18:00,75.6,47.5,29.85,SSE,150,2.0,4.0,37,0.00,,,0.00,meteobridge,2013-08-27 05:18:00,
2013-08-26 23:23:00,75.6,47.5,29.85,SE,128,0.9,6.9,37,0.00,,,0.00,meteobridge,2013-08-27 05:23:00,
2013-08-26 23:28:00,75.7,47.7,29.85,SE,135,0.9,4.0,37,0.00,,,0.00,meteobridge,2013-08-27 05:28:00,
2013-08-26 23:33:00,75.7,47.7,29.85,SSE,150,0.0,4.0,37,0.00,,,0.00,meteobridge,2013-08-27 05:33:00,
2013-08-26 23:38:00,75.6,47.5,29.85,SE,144,2.9,2.9,37,0.00,,,0.00,meteobridge,2013-08-27 05:38:00,
2013-08-26 23:43:00,75.6,47.5,29.84,ESE,123,2.0,2.9,37,0.00,,,0.00,meteobridge,2013-08-27 05:43:00,
2013-08-26 23:48:00,75.6,47.5,29.84,ESE,122,0.0,2.9,37,0.00,,,0.00,meteobridge,2013-08-27 05:48:00,
2013-08-26 23:53:00,75.4,48.0,29.84,ESE,123,2.0,2.9,38,0.00,,,0.00,meteobridge,2013-08-27 05:53:00,
2013-08-26 23:58:00,75.0,48.4,29.84,ESE,105,0.0,2.0,39,0.00,,,0.00,meteobridge,2013-08-27 05:58:00,